User: anonymous   Login
Location: Unspecified
(0.0000°N, 0.0000°E)
Time: 19:27:45
(UTC+00:00)
Language:

Meteor 2-8 - Orbit

View from above orbital plane
View from above orbital plane
View from above satellite
View from above satellite

Ground track
Ground track

The orbit data is extracted from the following two-line orbital elements,

1 13113U 82025A   18168.90819529 +.00000033 +00000-0 +15678-4 0  9990
2 13113 082.5402 265.9426 0018199 168.9181 328.6258 13.85375582831135
Epoch (UTC): 17 June 2018 21:47:48
Eccentricity: 0.0018199
inclination: 82.5402°
perigee height: 931 km
apogee height: 958 km
right ascension of ascending node: 265.9426°
argument of perigee: 168.9181°
revolutions per day: 13.85375582
mean anomaly at epoch: 328.6258°
orbit number at epoch: 83113

The dashed part of the orbit path shows where the satellite is in the earth's shadow,  

DLR